Tracking 23726 objects as of 24-Sep-2021
HD Live streaming from Space Station
objects crossing your sky now

STARLINK-2004

Track STARLINK-2004 now!
10-day predictions
STARLINK-2004 is classified as:


NORAD ID: 47599
Int'l Code: 2021-009BD
Perigee: 552.8 km
Apogee: 555.9 km
Inclination: 53.1 °
Period: 95.6 minutes
Semi major axis: 6925 km
RCS: Unknown
Launch date: February 4, 2021
Source: United States (US)
Launch site: AIR FORCE EASTERN TEST RANGE (AFETR)
aabbcc
Your satellite tracking list
Your tracking list is empty




NASA's NSSDC Master Catalog

Two Line Element Set (TLE):
1 47599U 21009BD  21266.87299171  .00001365  00000-0  11054-3 0  9996
2 47599  53.0561 109.1604 0002303  80.4707 279.6542 15.06399219 35728
Source of the keplerian elements: AFSPC